星链-11334 (STARLINK-11334)

导读 | 星芒AI

STARLINK-11334 是 SpaceX Starlink 卫星互联网项目中的一颗低轨卫星,属于第50批发射的星链卫星之一。该卫星于2023年发射,运行在约550公里高度的近地轨道,旨在为全球提供高速互联网服务。Starlink 项目计划部署数千颗卫星,以构建覆盖全球的宽带网络,尤其服务于偏远地区。STARLINK-11334 采用先进推进系统和激光通信技术,具备自动避障功能,有助于减少太空碎片风险。

基本信息
目录编号:
61250
目录名称:
STARLINK-11334
国际标识:
2024-175H
轨道中心:
EARTH
卫星名称:
星链-11334
卫星全名:
星链-11334 (STARLINK-11334)
卫星状态:
已陨落 最后检测时间 2025-10-06
发射日期:
2024-09-25 UTC
国别 :
美国 (US)
星等 :
--
轨道信息
数据来源 国际轨道数据
星历时间: 2025-10-06T05:19:28+0800
轨道信息已过期70天
半长轴: 6594.845km
偏心率: 0.0004994
轨道倾角: 53.133°
近地点辐角 246.730°
升交点赤经 92.670°
平近点角 113.321°
近地点: 213.416km
远地点: 220.004km
周期: 88.831分钟
每日圈数: 16.21048
详细信息
固有亮度:
5
最大亮度:
2.5
卫星平台:
Starlink V1.0
覆盖范围:
全球
运营商:
太空探索技术公司
运营商所在国:
美国
制造商(研发单位):
太空探索技术公司
制造商所在国:
美国
使用方式:
暂无
卫星简介
Starlink 计划是 SpaceX 推出的全球卫星互联网项目,通过发射低轨道卫星,为全球尤其是偏远地区提供高速、低延迟的互联网服务。自 2019 年起,Starlink 已部署数千颗卫星,旨在缩小全球数字鸿沟,推动互联网普及。该项目还为军事、航空等行业提供通信支持,带来广泛经济效益。